Location: Hurecourt
(47.9030°N, 6.0653°E)
Time: 21:06:15
(UTC+00:00)

Cosmos 1666 - Pass Details

Date: 14 July 2020
Orbit: 497 x 521 km, 82.5° (Epoch: 14 August)

Event Time Altitude Azimuth Distance (km) Brightness Sun altitude
Exits shadow 01:13:11 16° 137° (SE) 1,397 4.6 -17.5°
Maximum altitude 01:15:21 26° 90° (E) 1,025 4.4 -17.4°
Drops below altitude 10° 01:18:32 10° 33° (NNE) 1,724 6.6 -17.1°
Sets 01:20:52 0° 21° (NNE) 2,611 8.1 -17.0°
